"Pseudo-MPEC" for ZTF10BB

Created 2026 Mar 30 17:35:21 UT using Find_Orb

Click here for an explanation of pseudo-MPECs

 
 Astrometry: 
     ZTF10BB 0C2026 02 02.24736107 33 57.454-21 43 23.56   ~29Bo 20.16RUNEOCPI41
     ZTF10BB 0C2026 02 02.24771207 33 56.941-21 43 18.57   ~29Bo 20.16RUNEOCPI41
     ZTF10BB 0C2026 02 03.22881706 57 50.666-15 56 25.92   ~29Bo       UNEOCPI41
     ZTF10BB 0C2026 02 03.22916506 57 49.183-15 56 10.92   ~29Bo       UNEOCPI41
     ZTF10BB*0C2026 02 03.25251406 56 10.640-15 39 58.10   ~29Bo 17.98RUNEOCPI41
     ZTF10BB 0C2026 02 03.25286206 56 09.168-15 39 42.83   ~29Bo 17.98RUNEOCPI41
     ZTF10BB 0C2026 02 03.25298406 56 08.648-15 39 37.61   ~29Bo 17.72RUNEOCPI41
     ZTF10BB 0C2026 02 03.25333206 56 07.130-15 39 22.16   ~29Bo 17.72RUNEOCPI41
     ZTF10BB 0C2026 02 03.27315506 54 40.152-15 24 58.06   ~29Bo       UNEOCPI41
     ZTF10BB 0C2026 02 03.27350206 54 38.663-15 24 43.26   ~29Bo       UNEOCPI41

Station data:
(I41) Palomar Mountain--ZTF  (N33.357336 W116.859780)  US/California.
   Observers B. T. Bolin, Z. T. F. Collaboration. Measurers B. T. Bolin,
   Z.-Y. Lin, F. J. Masci. 1.2-m f/2.4 Schmidt.

Orbital elements:  ZTF10BB
   Perihelion 2026 Mar 10.838944 +/- 0.28 TT = 20:08:04.7 (JD 2461110.338944)
Epoch 2026 Feb  3.0 TT = JDT 2461074.5   Earth MOID: 0.0012   Ju: 0.8606
M 358.968984452 +/- 0.35            (J2000 ecliptic)             AutoNEOCP
n   0.028768022 +/- 0.00958         Peri.   60.348810 +/- 0.19
a  10.54862950 +/- 2.34             Node   134.603079 +/- 0.0045
e   0.92917640 +/- 0.0158           Incl.   34.635008 +/- 0.30
P  34.26053                H 25.61  G  0.15   U  9.6
q 0.747091854 +/- 0.000723    Q 20.35016715 +/- 4.68
From 10 observations 2026 Feb. 2-3 (24.6 hr); mean residual 0".68
Residuals in arcseconds: 
260202 I41  .35+  .61-    260203 I41  .62+  .61-    260203 I41  1.4-  .46+    
260202 I41  .35-  .61+    260203 I41  1.0+  .19-    260203 I41  .56-  .17-    
260203 I41  .52-  .26-    260203 I41  1.1+  .18-    
260203 I41  1.1-  .56+    260203 I41  .83+  .40+    

Ephemerides (geocentric):
Date (UTC) HH   RA             Dec           delta  r     elong  mag " sig PA
---- --------  ------------   ------------  ------ ------ -----  --- --------
2026 03 30 18  21 07 05.136   +18 11 23.79  .86095 .83783  52.9 27.4  158  98
2026 03 30 19  21 07 09.091   +18 10 51.99  .86145 .83818  52.9 27.4  158  98
2026 03 30 20  21 07 13.046   +18 10 20.22  .86195 .83853  53.0 27.4  159  98
2026 03 30 21  21 07 17.001   +18 09 48.46  .86245 .83888  53.0 27.4  160  98
2026 03 30 22  21 07 20.955   +18 09 16.73  .86295 .83923  53.0 27.4  160  98
2026 03 30 23  21 07 24.909   +18 08 45.01  .86345 .83959  53.0 27.4  161  98
2026 03 31 00  21 07 28.863   +18 08 13.32  .86395 .83994  53.0 27.4  162  98
2026 03 31 01  21 07 32.816   +18 07 41.65  .86445 .84029  53.0 27.4  162  98
2026 03 31 02  21 07 36.769   +18 07 10.00  .86495 .84065  53.0 27.4  163  98
2026 03 31 03  21 07 40.722   +18 06 38.37  .86545 .84100  53.0 27.4  164  98
2026 03 31 04  21 07 44.674   +18 06 06.76  .86594 .84136  53.1 27.4  164  98
2026 03 31 05  21 07 48.626   +18 05 35.17  .86644 .84171  53.1 27.4  165  98
2026 03 31 06  21 07 52.578   +18 05 03.60  .86694 .84207  53.1 27.4  166  98
2026 03 31 07  21 07 56.529   +18 04 32.06  .86743 .84243  53.1 27.4  167  98
2026 03 31 08  21 08 00.480   +18 04 00.53  .86793 .84278  53.1 27.4  167  98
2026 03 31 09  21 08 04.431   +18 03 29.02  .86843 .84314  53.1 27.4  168  98
2026 03 31 10  21 08 08.381   +18 02 57.54  .86892 .84350  53.1 27.4  169  98
2026 03 31 11  21 08 12.331   +18 02 26.08  .86941 .84386  53.2 27.4  169  98
2026 03 31 12  21 08 16.280   +18 01 54.63  .86991 .84422  53.2 27.4  170  98
2026 03 31 13  21 08 20.229   +18 01 23.21  .87040 .84458  53.2 27.4  171  98
2026 03 31 14  21 08 24.178   +18 00 51.81  .87089 .84494  53.2 27.4  171  98
2026 03 31 15  21 08 28.126   +18 00 20.43  .87139 .84530  53.2 27.4  172  98
2026 03 31 16  21 08 32.074   +17 59 49.07  .87188 .84566  53.2 27.4  173  98
2026 03 31 17  21 08 36.021   +17 59 17.74  .87237 .84602  53.2 27.4  173  98
2026 03 31 18  21 08 39.968   +17 58 46.42  .87286 .84638  53.2 27.4  174  98
2026 03 31 19  21 08 43.914   +17 58 15.12  .87335 .84674  53.3 27.4  175  98
2026 03 31 20  21 08 47.860   +17 57 43.85  .87384 .84711  53.3 27.4  176  99
2026 03 31 21  21 08 51.806   +17 57 12.59  .87433 .84747  53.3 27.4  176  99
2026 03 31 22  21 08 55.751   +17 56 41.36  .87482 .84784  53.3 27.4  177  99
2026 03 31 23  21 08 59.696   +17 56 10.15  .87531 .84820  53.3 27.4  178  99
2026 04 01 00  21 09 03.640   +17 55 38.95  .87580 .84857  53.3 27.4  178  99
2026 04 01 01  21 09 07.583   +17 55 07.78  .87629 .84893  53.3 27.4  179  99
2026 04 01 02  21 09 11.527   +17 54 36.63  .87677 .84930  53.4 27.4  180  99
2026 04 01 03  21 09 15.469   +17 54 05.50  .87726 .84966  53.4 27.4  181  99
2026 04 01 04  21 09 19.411   +17 53 34.40  .87775 .85003  53.4 27.5  181  99
2026 04 01 05  21 09 23.353   +17 53 03.31  .87823 .85040  53.4 27.5  182  99
2026 04 01 06  21 09 27.294   +17 52 32.24  .87872 .85077  53.4 27.5  183  99
2026 04 01 07  21 09 31.235   +17 52 01.20  .87921 .85114  53.4 27.5  183  99
2026 04 01 08  21 09 35.175   +17 51 30.17  .87969 .85151  53.4 27.5  184  99
2026 04 01 09  21 09 39.114   +17 50 59.17  .88017 .85187  53.5 27.5  185  99
2026 04 01 10  21 09 43.053   +17 50 28.19  .88066 .85224  53.5 27.5  186  99
2026 04 01 11  21 09 46.991   +17 49 57.23  .88114 .85262  53.5 27.5  186  99
2026 04 01 12  21 09 50.929   +17 49 26.28  .88162 .85299  53.5 27.5  187  99
2026 04 01 13  21 09 54.866   +17 48 55.36  .88211 .85336  53.5 27.5  188  99
2026 04 01 14  21 09 58.803   +17 48 24.47  .88259 .85373  53.5 27.5  189  99
2026 04 01 15  21 10 02.738   +17 47 53.59  .88307 .85410  53.5 27.5  189  99
2026 04 01 16  21 10 06.674   +17 47 22.73  .88355 .85448  53.6 27.5  190  99
2026 04 01 17  21 10 10.609   +17 46 51.89  .88403 .85485  53.6 27.5  191  99